LGL4657 LIMC-ELLX

Flight info

Callsign LGL4657
Flight time 0h 55m
Altitude 32000
Route AOSTA DCT ORSUD DCT MOLUS DCT GILIR DCT PENDU DCT IXILU DCT EPL G21 GIVOR
Aircraft B738/M-SDE2E3FGHIRWXY/LB1

Departure

Time 2026-05-06 15:30
Airport Milan Malpensa International Airport (LIMC)

Arrival

Time 2026-05-06 16:26
Airport Luxembourg-Findel International Airport (ELLX)
Time Latitude Longitude Altitude Speed Heading
2026-05-06 14:56 45.62846 8.71524 758 ft 0 kts 169°
2026-05-06 15:10 45.62859 8.71520 754 ft 4 kts 167°
2026-05-06 15:10 45.62885 8.71510 754 ft 4 kts 160°
2026-05-06 15:10 45.62909 8.71494 753 ft 4 kts 144°
2026-05-06 15:11 45.62925 8.71469 755 ft 4 kts 95°
2026-05-06 15:11 45.62926 8.71459 756 ft 1 kts 78°
2026-05-06 15:13 45.62927 8.71471 755 ft 3 kts 78°
2026-05-06 15:14 45.62934 8.71514 755 ft 6 kts 78°
2026-05-06 15:14 45.62945 8.71590 754 ft 9 kts 78°
2026-05-06 15:14 45.62958 8.71695 753 ft 11 kts 90°
2026-05-06 15:14 45.62899 8.71765 755 ft 14 kts 170°
2026-05-06 15:15 45.62777 8.71798 757 ft 22 kts 169°
2026-05-06 15:15 45.62632 8.71839 757 ft 17 kts 169°
2026-05-06 15:15 45.62517 8.71871 754 ft 16 kts 169°
2026-05-06 15:15 45.62406 8.71901 756 ft 16 kts 169°
2026-05-06 15:16 45.62300 8.71931 756 ft 15 kts 169°
2026-05-06 15:16 45.62198 8.71959 758 ft 15 kts 169°
2026-05-06 15:16 45.62089 8.71989 755 ft 17 kts 169°
2026-05-06 15:16 45.61960 8.72024 758 ft 21 kts 169°
2026-05-06 15:17 45.61809 8.72066 758 ft 24 kts 169°
2026-05-06 15:17 45.61638 8.72114 757 ft 26 kts 169°
2026-05-06 15:17 45.61450 8.72165 758 ft 29 kts 169°
2026-05-06 15:17 45.61282 8.72211 754 ft 25 kts 169°
2026-05-06 15:18 45.61106 8.72258 758 ft 27 kts 169°
2026-05-06 15:18 45.60917 8.72313 758 ft 29 kts 168°
2026-05-06 15:18 45.60765 8.72357 756 ft 21 kts 168°
2026-05-06 15:18 45.60643 8.72469 754 ft 24 kts 107°
2026-05-06 15:19 45.60624 8.72711 757 ft 26 kts 96°
2026-05-06 15:19 45.60606 8.72972 757 ft 27 kts 96°
2026-05-06 15:19 45.60615 8.73245 757 ft 28 kts 55°
2026-05-06 15:19 45.60786 8.73361 758 ft 27 kts 20°
2026-05-06 15:20 45.60963 8.73391 755 ft 25 kts 353°
2026-05-06 15:20 45.61128 8.73346 758 ft 23 kts 349°
2026-05-06 15:20 45.61284 8.73302 756 ft 23 kts 348°
2026-05-06 15:20 45.61437 8.73260 757 ft 22 kts 349°
2026-05-06 15:21 45.61522 8.73237 757 ft 5 kts 349°
2026-05-06 15:21 45.61564 8.73226 757 ft 8 kts 349°
2026-05-06 15:21 45.61603 8.73234 756 ft 1 kts 34°
2026-05-06 15:21 45.61605 8.73237 759 ft 0 kts 39°
2026-05-06 15:22 45.61606 8.73238 759 ft 1 kts 41°
2026-05-06 15:22 45.61617 8.73261 756 ft 4 kts 65°
2026-05-06 15:23 45.61622 8.73296 755 ft 1 kts 76°
2026-05-06 15:23 45.61623 8.73305 756 ft 0 kts 78°
2026-05-06 15:24 45.61626 8.73321 759 ft 3 kts 78°
2026-05-06 15:24 45.61632 8.73369 759 ft 7 kts 79°
2026-05-06 15:25 45.61626 8.73448 756 ft 10 kts 115°
2026-05-06 15:25 45.61593 8.73547 758 ft 10 kts 107°
2026-05-06 15:25 45.61588 8.73587 756 ft 0 kts 95°
2026-05-06 15:27 45.61588 8.73603 758 ft 4 kts 90°
2026-05-06 15:27 45.61595 8.73664 756 ft 9 kts 75°
2026-05-06 15:28 45.61645 8.73727 758 ft 12 kts 359°
2026-05-06 15:28 45.61678 8.73722 756 ft 0 kts 348°
2026-05-06 15:29 45.61709 8.73712 753 ft 23 kts 348°
2026-05-06 15:29 45.62112 8.73596 758 ft 94 kts 349°
2026-05-06 15:29 45.62958 8.73367 756 ft 152 kts 349°
2026-05-06 15:30 45.64090 8.73051 1132 ft 173 kts 348°
2026-05-06 15:30 45.65335 8.72644 1749 ft 191 kts 347°
2026-05-06 15:30 45.66665 8.72208 2371 ft 203 kts 350°
2026-05-06 15:30 45.68119 8.72108 2779 ft 221 kts
2026-05-06 15:31 45.69703 8.72324 3211 ft 234 kts
2026-05-06 15:31 45.71366 8.72387 3806 ft 241 kts 355°
2026-05-06 15:31 45.72928 8.71566 4467 ft 245 kts 316°
2026-05-06 15:32 45.73818 8.67275 6152 ft 232 kts 253°
2026-05-06 15:32 45.73235 8.65123 6933 ft 232 kts 244°
2026-05-06 15:32 45.72516 8.63038 7678 ft 235 kts 243°
2026-05-06 15:32 45.71785 8.60946 8473 ft 236 kts 243°
2026-05-06 15:33 45.70945 8.58853 8982 ft 252 kts 238°
2026-05-06 15:33 45.69955 8.56632 9307 ft 272 kts 237°
2026-05-06 15:33 45.68924 8.54327 10041 ft 277 kts 238°
2026-05-06 15:33 45.67855 8.51918 10354 ft 299 kts 237°
2026-05-06 15:34 45.66688 8.49306 10548 ft 323 kts 237°
2026-05-06 15:34 45.65441 8.46514 10809 ft 341 kts 237°
2026-05-06 15:34 45.64157 8.43636 11535 ft 345 kts 237°
2026-05-06 15:34 45.62860 8.40736 12293 ft 348 kts 236°
2026-05-06 15:35 45.61404 8.37964 13019 ft 351 kts 230°
2026-05-06 15:35 45.59815 8.35290 13741 ft 354 kts 231°
2026-05-06 15:35 45.58667 8.32169 14364 ft 361 kts 253°
2026-05-06 15:35 45.58390 8.28589 15073 ft 367 kts 270°
2026-05-06 15:36 45.58904 8.24998 15731 ft 374 kts 284°
2026-05-06 15:36 45.59734 8.21451 16354 ft 379 kts 286°
2026-05-06 15:36 45.60603 8.17872 16953 ft 384 kts 286°
2026-05-06 15:36 45.61468 8.14294 17565 ft 387 kts 285°
2026-05-06 15:37 45.62337 8.10642 18195 ft 390 kts 285°
2026-05-06 15:37 45.63200 8.06957 18756 ft 392 kts 284°
2026-05-06 15:37 45.64058 8.03255 19376 ft 393 kts 284°
2026-05-06 15:37 45.64859 7.99774 19924 ft 394 kts 284°
2026-05-06 15:38 45.65705 7.96106 20395 ft 396 kts 283°
2026-05-06 15:38 45.66565 7.92351 20879 ft 398 kts 283°
2026-05-06 15:38 45.67427 7.88583 21463 ft 399 kts 283°
2026-05-06 15:38 45.68290 7.84807 22039 ft 401 kts 282°
2026-05-06 15:39 45.69159 7.80991 22481 ft 406 kts 283°
2026-05-06 15:39 45.70035 7.77137 22931 ft 409 kts 282°
2026-05-06 15:39 45.70921 7.73237 23437 ft 412 kts 282°
2026-05-06 15:39 45.71811 7.69317 23733 ft 419 kts 283°
2026-05-06 15:40 45.72713 7.65322 24035 ft 423 kts 282°
2026-05-06 15:40 45.73619 7.61310 24449 ft 422 kts 283°
2026-05-06 15:40 45.74521 7.57311 24939 ft 422 kts 282°
2026-05-06 15:40 45.75422 7.53295 25303 ft 425 kts 282°
2026-05-06 15:41 45.76330 7.49244 25644 ft 428 kts 282°
2026-05-06 15:41 45.77231 7.45227 26028 ft 430 kts 282°
2026-05-06 15:41 45.78146 7.41146 26392 ft 432 kts 282°
2026-05-06 15:41 45.79182 7.37017 26756 ft 441 kts 291°
2026-05-06 15:42 45.80932 7.33394 27077 ft 458 kts 307°
2026-05-06 15:42 45.83427 7.30440 27443 ft 470 kts 319°
2026-05-06 15:42 45.86136 7.27783 27718 ft 474 kts 320°
2026-05-06 15:42 45.88888 7.25131 27977 ft 477 kts 320°
2026-05-06 15:43 45.91635 7.22434 28303 ft 479 kts 319°
2026-05-06 15:43 45.94368 7.19682 28632 ft 481 kts 318°
2026-05-06 15:43 45.97109 7.16885 28933 ft 484 kts 318°
2026-05-06 15:43 45.99853 7.14071 29358 ft 484 kts 317°
2026-05-06 15:44 46.02579 7.11274 29871 ft 482 kts 318°
2026-05-06 15:44 46.05302 7.08477 30321 ft 479 kts 318°
2026-05-06 15:44 46.08009 7.05694 30690 ft 478 kts 318°
2026-05-06 15:44 46.09802 7.03848 30894 ft 478 kts 318°
2026-05-06 15:45 46.13417 7.00119 31288 ft 477 kts 318°
2026-05-06 15:45 46.15085 6.98397 31523 ft 476 kts 318°
2026-05-06 15:45 46.17773 6.95619 31864 ft 475 kts 318°
2026-05-06 15:45 46.20459 6.92840 32075 ft 476 kts 318°
2026-05-06 15:46 46.23151 6.90049 32379 ft 476 kts 319°
2026-05-06 15:46 46.25836 6.87265 32757 ft 474 kts 318°
2026-05-06 15:46 46.28515 6.84483 33129 ft 473 kts 318°
2026-05-06 15:46 46.31190 6.81702 33458 ft 472 kts 318°
2026-05-06 15:47 46.33852 6.78929 33828 ft 471 kts 319°
2026-05-06 15:47 46.36504 6.76163 34153 ft 468 kts 319°
2026-05-06 15:47 46.39148 6.73402 34286 ft 470 kts 319°
2026-05-06 15:47 46.41810 6.70618 34365 ft 473 kts 319°
2026-05-06 15:48 46.44378 6.67985 34552 ft 475 kts 322°
2026-05-06 15:48 46.47268 6.65629 34832 ft 478 kts 329°
2026-05-06 15:48 46.50261 6.63533 35120 ft 477 kts 330°
2026-05-06 15:48 46.53264 6.61502 35355 ft 477 kts 330°
2026-05-06 15:49 46.56274 6.59467 35556 ft 477 kts 330°
2026-05-06 15:49 46.59278 6.57410 35770 ft 476 kts 330°
2026-05-06 15:49 46.62271 6.55330 35926 ft 477 kts 330°
2026-05-06 15:49 46.65272 6.53221 35903 ft 480 kts 330°
2026-05-06 15:50 46.71255 6.48979 35924 ft 475 kts 330°
2026-05-06 15:50 46.77140 6.44794 35904 ft 467 kts 330°
2026-05-06 15:51 46.82951 6.40652 35909 ft 465 kts 330°
2026-05-06 15:51 46.88782 6.36482 35914 ft 473 kts 330°
2026-05-06 15:52 46.94716 6.32232 35903 ft 476 kts 330°
2026-05-06 15:52 47.00662 6.27964 35897 ft 477 kts 330°
2026-05-06 15:53 47.06628 6.23673 35893 ft 477 kts 330°
2026-05-06 15:53 47.12593 6.19396 35887 ft 477 kts 331°
2026-05-06 15:54 47.19268 6.14604 35886 ft 475 kts 331°
2026-05-06 15:54 47.25191 6.10332 35885 ft 473 kts 331°
2026-05-06 15:55 47.31097 6.06075 35877 ft 472 kts 333°
2026-05-06 15:55 47.37415 6.03428 35878 ft 475 kts 351°
2026-05-06 15:56 47.44034 6.03296 35880 ft 476 kts
2026-05-06 15:56 47.50652 6.03581 35872 ft 476 kts 360°
2026-05-06 15:57 47.56157 6.03747 35871 ft 475 kts 359°
2026-05-06 15:57 47.63853 6.03904 35868 ft 476 kts 359°
2026-05-06 15:58 47.70481 6.04032 35866 ft 477 kts 359°
2026-05-06 15:58 47.76046 6.04154 35867 ft 478 kts 360°
2026-05-06 15:59 47.82705 6.04363 35871 ft 479 kts
2026-05-06 15:59 47.89373 6.04584 35872 ft 480 kts
2026-05-06 16:00 47.96054 6.04797 35869 ft 480 kts
2026-05-06 16:00 48.02681 6.05001 35866 ft 480 kts
2026-05-06 16:01 48.09370 6.05208 35868 ft 479 kts
2026-05-06 16:01 48.12654 6.05311 35839 ft 465 kts
2026-05-06 16:01 48.15837 6.05411 35838 ft 451 kts
2026-05-06 16:02 48.18929 6.05506 35838 ft 437 kts
2026-05-06 16:02 48.21924 6.05599 35839 ft 424 kts
2026-05-06 16:02 48.27752 6.05784 35873 ft 421 kts
2026-05-06 16:03 48.30690 6.06332 35855 ft 430 kts 14°
2026-05-06 16:03 48.33551 6.07746 35871 ft 436 kts 24°
2026-05-06 16:03 48.38798 6.12433 35862 ft 441 kts 34°
2026-05-06 16:04 48.43909 6.17562 35863 ft 442 kts 34°
2026-05-06 16:04 48.49066 6.22655 35867 ft 443 kts 33°
2026-05-06 16:05 48.54219 6.27681 35835 ft 444 kts 33°
2026-05-06 16:05 48.59392 6.32727 35847 ft 441 kts 33°
2026-05-06 16:06 48.64535 6.37763 35848 ft 438 kts 33°
2026-05-06 16:06 48.67222 6.39873 35821 ft 436 kts 16°
2026-05-06 16:06 48.70126 6.41071 35886 ft 432 kts 14°
2026-05-06 16:07 48.75934 6.43387 35857 ft 431 kts 14°
2026-05-06 16:07 48.81717 6.45779 35845 ft 430 kts 15°
2026-05-06 16:08 48.87482 6.48215 35853 ft 430 kts 15°
2026-05-06 16:08 48.93182 6.50637 35155 ft 430 kts 15°
2026-05-06 16:09 48.96076 6.51867 34450 ft 433 kts 16°
2026-05-06 16:09 48.99019 6.53118 33672 ft 435 kts 16°
2026-05-06 16:09 49.01887 6.54340 32807 ft 435 kts 16°
2026-05-06 16:09 49.04811 6.55587 31887 ft 437 kts 17°
2026-05-06 16:10 49.07747 6.56839 30985 ft 438 kts 17°
2026-05-06 16:10 49.10691 6.58094 30121 ft 439 kts 17°
2026-05-06 16:10 49.13635 6.59349 29137 ft 439 kts 17°
2026-05-06 16:10 49.16571 6.60602 28178 ft 438 kts 16°
2026-05-06 16:11 49.19498 6.61854 27236 ft 435 kts 16°
2026-05-06 16:11 49.22460 6.62708 26269 ft 434 kts
2026-05-06 16:11 49.25436 6.62147 25405 ft 429 kts 343°
2026-05-06 16:11 49.28194 6.60458 24570 ft 425 kts 334°
2026-05-06 16:12 49.30861 6.58547 23753 ft 422 kts 334°
2026-05-06 16:12 49.33509 6.56637 22844 ft 419 kts 334°
2026-05-06 16:12 49.36143 6.54770 21897 ft 416 kts 334°
2026-05-06 16:12 49.38769 6.52943 20967 ft 411 kts 335°
2026-05-06 16:13 49.41363 6.51153 20078 ft 407 kts 334°
2026-05-06 16:13 49.43991 6.49598 19197 ft 404 kts 346°
2026-05-06 16:13 49.46725 6.49010 18391 ft 400 kts 354°
2026-05-06 16:13 49.49483 6.48580 17483 ft 396 kts 353°
2026-05-06 16:14 49.52203 6.48085 16571 ft 392 kts 351°
2026-05-06 16:14 49.54857 6.47552 16131 ft 377 kts 351°
2026-05-06 16:14 49.57409 6.47032 15683 ft 364 kts 353°
2026-05-06 16:14 49.59893 6.47217 15222 ft 355 kts 14°
2026-05-06 16:15 49.62115 6.48741 14807 ft 347 kts 34°
2026-05-06 16:15 49.63855 6.51230 14379 ft 339 kts 52°
2026-05-06 16:15 49.64987 6.54371 13908 ft 334 kts 71°
2026-05-06 16:15 49.65407 6.57830 13641 ft 322 kts 89°
2026-05-06 16:16 49.65135 6.61176 13389 ft 309 kts 108°
2026-05-06 16:16 49.64259 6.64123 13131 ft 297 kts 126°
2026-05-06 16:16 49.62921 6.66479 12734 ft 289 kts 141°
2026-05-06 16:16 49.61309 6.68271 12345 ft 283 kts 153°
2026-05-06 16:17 49.59516 6.69386 11969 ft 275 kts 171°
2026-05-06 16:17 49.57642 6.69858 11613 ft 271 kts 174°
2026-05-06 16:17 49.55772 6.70263 11240 ft 270 kts 174°
2026-05-06 16:17 49.53913 6.70660 10786 ft 270 kts 174°
2026-05-06 16:18 49.52057 6.71051 10369 ft 268 kts 176°
2026-05-06 16:18 49.50261 6.70658 9931 ft 262 kts 210°
2026-05-06 16:18 49.48961 6.68788 9521 ft 256 kts 240°
2026-05-06 16:18 49.48351 6.66257 9088 ft 254 kts 262°
2026-05-06 16:19 49.48434 6.63570 8664 ft 259 kts 284°
2026-05-06 16:19 49.49224 6.61068 8237 ft 265 kts 307°
2026-05-06 16:19 49.50446 6.58900 7837 ft 270 kts 311°
2026-05-06 16:19 49.51967 6.57174 7383 ft 279 kts 335°
2026-05-06 16:20 49.53816 6.56226 6998 ft 282 kts 342°
2026-05-06 16:20 49.55699 6.55423 6850 ft 275 kts 342°
2026-05-06 16:20 49.57528 6.54663 6641 ft 271 kts 343°
2026-05-06 16:20 49.59346 6.53907 6400 ft 269 kts 343°
2026-05-06 16:21 49.61148 6.53153 6112 ft 268 kts 343°
2026-05-06 16:21 49.62937 6.52399 5783 ft 263 kts 343°
2026-05-06 16:21 49.64681 6.51651 5472 ft 256 kts 343°
2026-05-06 16:21 49.66377 6.50913 5161 ft 251 kts 343°
2026-05-06 16:22 49.68037 6.50173 4873 ft 246 kts 343°
2026-05-06 16:22 49.69570 6.49157 4545 ft 242 kts 323°
2026-05-06 16:22 49.70528 6.47095 4205 ft 240 kts 286°
2026-05-06 16:22 49.70577 6.44548 3964 ft 239 kts 263°
2026-05-06 16:23 49.70232 6.41998 3648 ft 247 kts 253°
2026-05-06 16:23 49.69545 6.39541 3365 ft 252 kts 248°
2026-05-06 16:23 49.68679 6.37180 3056 ft 255 kts 235°
2026-05-06 16:23 49.67634 6.35018 2864 ft 250 kts 243°
2026-05-06 16:24 49.66926 6.32593 2583 ft 247 kts 248°
2026-05-06 16:24 49.66061 6.30351 2367 ft 236 kts 238°
2026-05-06 16:24 49.65203 6.28290 2070 ft 222 kts 243°
2026-05-06 16:24 49.64502 6.26238 1691 ft 212 kts 245°
2026-05-06 16:25 49.63802 6.24286 1364 ft 202 kts 242°
2026-05-06 16:25 49.63131 6.22491 1248 ft 184 kts 243°
2026-05-06 16:25 49.62548 6.20921 1246 ft 156 kts 241°
2026-05-06 16:25 49.62094 6.19663 1201 ft 93 kts 239°
2026-05-06 16:26 49.61920 6.19213 1181 ft 42 kts 240°
2026-05-06 16:26 49.61816 6.18931 1170 ft 22 kts 240°
2026-05-06 16:26 49.61786 6.18766 1164 ft 18 kts 287°
2026-05-06 16:26 49.61893 6.18746 1160 ft 19 kts 38°
2026-05-06 16:27 49.61978 6.18893 1165 ft 19 kts 60°